{"data":{"norad_id":65457,"intl_designator":"2025-194Z","name":"STARLINK-35076","alt_names":[],"object_type":"PAYLOAD","status":"ACTIVE","operator":null,"country":"US","launch_date":"2025-09-03","launch_site_code":"AFWTR","launch_vehicle":null,"mission":null,"orbit_class":"UNKNOWN","rcs_meters":null,"size_class":null,"mass_kg":null,"dimensions":null,"purposes":["comms"],"wikipedia_slug":null,"has_3d_model":false,"image_url":null,"decayed_at":null,"tle_current":{"epoch":"2026-09-20T12:36:18.658944Z","epoch_age_seconds":112755,"freshness":"FRESH","line1":"1 65457U 25194Z   26263.52521596  .00011607  00000+0  36111-3 0  9991","line2":"2 65457  97.2847 113.1968 0003212  78.5201 281.6403 15.33458771 59075","mean_motion":15.33458771,"eccentricity":0.0003212,"inclination_deg":97.2847,"raan_deg":113.1968,"arg_perigee_deg":78.5201,"mean_anomaly_deg":281.6403,"bstar":0.00036111,"rev_number":5907,"period_min":93.905361346034,"perigee_km":463.3040250658,"apogee_km":467.70037888915,"semimajor_km":6843.6392019775,"source":"CELESTRAK","updated_at":"2026-09-21T09:00:35.613326Z"}}}